Weather Roundup
Issued by NWS

Home | Current Version | Previous Version | Graphics & Text | Print | Product List | Glossary Off
Versions: 1 2 3 4 5 6 7 8 9 10 11 12 13 14 15 16 17 18 19 20 21 22 23 24 25 26 27 28 29 30 31 32 33 34 35 36 37 38 39 40 41 42 43 44 45 46 47 48 49 50

000
NZUS93 KARX 060259
HRRWXR

CURRENT HOURLY OBSERVATIONS ACROSS
MUCH OF THE UPPER MISSISSIPPI VALLEY
NATIONAL WEATHER SERVICE LA CROSSE WI
900 PM CST THU MAR 05 2015


...SOUTHEAST MINNESOTA...


CITY           SKY/WX    TMP DP  RH WIND       PRES   REMARKS
ROCHESTER      PTCLDY     1  -5  75 S13       30.38F WCI -17
ROCHESTER/MAYO FAIR       6  -3  68 S13G18    30.39F WCI -10
WINONA         PTCLDY     9   0  66 SE3       30.47F
AUSTIN         PTCLDY     3  -2  78 S10       30.39F WCI -12
ALBERT LEA     PTCLDY     9   1  72 S9        30.37F WCI  -5
DODGE CENTER   PTCLDY     5   0  78 S13       30.36F WCI -12
PRESTON        PTCLDY     1  -5  75 S9        30.41S WCI -14
OWATONNA       CLEAR      9   1  72 S15       30.36F WCI  -8
FARIBAULT      CLEAR      9   1  72 S9        30.36F WCI  -5
$$

...ELSEWHERE IN MINNESOTA...


CITY           SKY/WX    TMP DP  RH WIND       PRES   REMARKS
MINNEAPOLIS    PTCLDY    11   1  64 S10       30.36F WCI  -3
INTNL FALLS    CLEAR     12  -4  48 SW14G24   30.07F WCI  -3
DULUTH         CLEAR      7  -6  55 SW13      30.21F WCI  -9
RED WING       PTCLDY     9  -2  61 S7        30.41S WCI  -3
REDWOOD FALLS  CLEAR     14   5  67 S15       30.27F WCI  -1
MANKATO        FAIR      12   1  62 S12G17    30.33F WCI  -2
FAIRMONT       CLEAR     12   5  73 S14       30.31F WCI  -3
$$

...SOUTHWEST WISCONSIN...


CITY           SKY/WX    TMP DP  RH WIND       PRES   REMARKS
LA CROSSE      PTCLDY     6  -4  63 S5        30.47F WCI  -3
PRAIRIE DU CHI FAIR       3  -6  66 CALM      30.51F
BOSCOBEL       PTCLDY     4  -6  63 SW6       30.51S WCI  -7
LONE ROCK      NOT AVBL
PLATTEVILLE    MOCLDY     2  -7  68 S3        30.48S
FORT MC COY    PTCLDY     7  -4  59 CALM      30.47R
VIROQUA        FAIR       3  -5  70 SW8       30.42S WCI -11
WIS DELLS      NOT AVBL
$$

...ELSEWHERE IN WISCONSIN...


CITY           SKY/WX    TMP DP  RH WIND       PRES   REMARKS
MILWAUKEE      PTCLDY     9  -6  50 SW9       30.50R WCI  -4
MADISON        MOCLDY     7  -6  55 SW6       30.47R WCI  -3
GREEN BAY      PTCLDY     7  -7  52 W5        30.43S WCI  -2
EAU CLAIRE     NOT AVBL
BLACK RVR FLS  FAIR      -1  -9  68 S3        30.43S
MEDFORD        PTCLDY     0 -10  60 SW3       30.33S
WAUSAU         PTCLDY     3 -10  54 SW5       30.36S WCI  -6
WIS RAPIDS     PTCLDY     6  -8  52 SW6       30.42S WCI  -4
MARSHFIELD     PTCLDY     3 -10  54 SW6       30.37S WCI  -8
RICE LAKE      MOCLDY     3  -7  63 SE6       30.37F WCI  -8
$$

...NORTHEAST IOWA...


CITY           SKY/WX    TMP DP  RH WIND       PRES   REMARKS
DECORAH        MOCLDY     1  -6  71 S5        30.44S WCI  -8
MASON CITY     PTCLDY     3  -3  76 S10       30.42F WCI -12
CHARLES CITY   MOCLDY     1  -6  71 S9        30.45F WCI -14
OELWEIN        PTCLDY    -2  -8  78 S7        30.48S WCI -16
$$

...ELSEWHERE IN IOWA...


CITY           SKY/WX    TMP DP  RH WIND       PRES   REMARKS
DES MOINES     CLEAR     18   2  49 SE6       30.46F WCI  10
IOWA CITY      PTCLDY     5  -1  76 SE6       30.55F WCI  -6
FORT DODGE     CLEAR     14   1  57 SE6       30.40F WCI   5
$$

...NORTHERN ILLINOIS...


CITY           SKY/WX    TMP DP  RH WIND       PRES   REMARKS
CHICAGO-OHARE  PTCLDY     9  -3  58 SW5       30.53S WCI   1
CHICAGO-MIDWAY PTCLDY    13  -1  54 W8        30.55S WCI   2
MOLINE         MOCLDY     5  -3  69 CALM      30.56S
ROCKFORD       MOCLDY     5  -4  66 SW5       30.54R WCI  -4
PEORIA         PTCLDY     8  -2  63 CALM      30.59S
$$

NOTE: "FAIR" INDICATES FEW OR NO CLOUDS BELOW 12,000 FEET WITH NO
SIGNIFICANT WEATHER AND/OR OBSTRUCTIONS TO VISIBILITY. WIND
SPEEDS ARE IN MILES-PER-HOUR.



USA.gov is the U.S. government's official web portal to all federal, state and local government web resources and services.